Regional Weather Roundup
Issued by NWS Jackson, KY

Current Version | Previous Version | Text Only | Print | Product List | Glossary On
Versions: 1 2 3 4 5 6 7 8 9 10 11 12 13 14 15 16 17 18 19 20 21 22 23 24 25 26 27 28 29 30 31 32 33 34 35 36 37 38 39 40 41 42 43 44 45 46 47 48 49 50
000
ASUS43 KJKL 260310
RWRJKL

EAST KENTUCKY HOURLY WEATHER ROUNDUP
NATIONAL WEATHER SERVICE JACKSON KY
1100 PM EDT MON MAY 25 2015

NOTE: "FAIR" INDICATES FEW OR NO CLOUDS BELOW 12,000 FEET WITH
NO SIGNIFICANT WEATHER AND/OR OBSTRUCTIONS TO VISIBILITY.

* THESE REPORTS ARE NOT UNDER NWS QUALITY CONTROL AND MAY NOT
  REPORT WEATHER SUCH AS PRECIPITATION AND FOG.

KYZ079-080-083-085-087-088-110-112-115-119-120-260400
...EASTERN KENTUCKY...

CITY           SKY/WX    TMP DP  RH WIND       PRES   REMARKS
JACKSON        PTCLDY    74  59  59 CALM      30.16R
LONDON         MOCLDY    72  62  71 W6        30.17R
SOMERSET*      CLOUDY    68  63  83 SW3       30.17R
MONTICELLO*    CLOUDY    69  66  90 SW5       30.18R
MIDDLESBORO*   CLOUDY    74  64  70 S12       30.17R
HARLAN APT*    MOCLDY    70  61  73 MISG      30.18R
HAZARD APT*    CLEAR     72  61  68 CALM      30.16R
BLACK MTN*       N/A     64  57  77 E3          N/A
PIKEVILLE APT* CLEAR     73  63  68 S3        30.16R
BIG SANDY*     MOCLDY    71  64  79 CALM      30.16R
MOREHEAD APT*  CLOUDY    68  66  94 S6        30.16S FOG
$$

KYZ035-036-041-042-044-050-067-078-099-260400
...CENTRAL KENTUCKY...

CITY           SKY/WX    TMP DP  RH WIND       PRES   REMARKS
MT STERLING*   CLEAR     66  66 100 CALM      30.16R
FLEMING/MASON* PTCLDY    64  64 100 CALM      30.16R
DANVILLE*      CLOUDY    68  63  83 SW8       30.16R
RICHMOND*      CLOUDY    70  63  78 SW5       30.15R
LEXINGTON      MOCLDY    67  66  97 S5        30.14R
FRANKFORT      MOCLDY    68  63  84 CALM      30.12R
$$

KYZ091>093-OHZ055-061-077-WVZ005-015-034-035-042-260400
...SOUTHERN OHIO/WEST VIRGINIA...

CITY           SKY/WX    TMP DP  RH WIND       PRES   REMARKS
COVINGTON      MOCLDY    71  64  78 S9        30.11R
COLUMBUS       PTCLDY    73  60  63 SW5       30.11R
DAYTON         CLOUDY    71  64  78 S12       30.10S
WILMINGTON     MOCLDY    67  63  87 SW6       30.12R
HUNTINGTON     MOCLDY    70  66  87 CALM      30.12R
CHARLESTON     PTCLDY    71  64  78 CALM      30.14S
PINEVILLE*     MOCLDY    66  63  89 MISG      30.26R
BECKLEY        PTCLDY    68  56  65 S10       30.25S
BLUEFIELD      MOCLDY    70  54  56 S12G18    30.28F
$$

VAZ002-007-008-TNZ017-027-036-066-071-260400
...SOUTHWEST VIRGINIA/EAST TENNESSEE...

CITY           SKY/WX    TMP DP  RH WIND       PRES   REMARKS
WISE*          MOCLDY    72  54  53 S6        30.26R
JONESVILLE*    MOCLDY    66  64  94 N3        30.21R
ABINGDON*      CLOUDY    71  58  63 CALM      30.25R
BRISTOL        CLOUDY    75  58  55 SE5       30.22R
KNOXVILLE      LGT RAIN  68  63  84 S8        30.19F
OAK RIDGE      LGT RAIN  70  67  90 VRB5      30.21R
CROSSVILLE     CLOUDY    66  63  90 S3        30.22R
NASHVILLE      PTCLDY    68  66  93 SE6       30.14R
$$

...KEY TO REMARKS...
VSB - VISIBILITY IN MILES
WCI - WIND CHILL INDEX
HX  - HEAT INDEX

$$


USA.gov is the U.S. government's official web portal to all federal, state and local government web resources and services.